Theta_e
329 328 326 326 328 328 329 328 324 327 326 327 328 329 332 333 336 340 339 341 341 346 347 346 343 342 342 343 339 332 332 335 336 338 341 340 338 335 333 330 328 327 329 332 335 335 335 333 332
329 326 326 327 328 330 329 327 324 325 327 327 327 328 330 334 334 340 340 340 341 345 347 350 343 341 341 340 334 333 334 333 333 334 339 336 334 334 330 329 330 328 326 325 329 329 329 329 328
328 325 327 328 328 328 329 327 324 326 326 327 328 330 333 335 336 338 340 340 342 345 348 350 343 341 342 339 336 336 336 332 333 335 337 333 331 328 329 331 328 324 323 325 322 326 325 323 322
327 325 325 328 328 327 327 326 325 326 326 327 329 331 332 334 336 337 339 339 343 345 347 348 342 341 341 338 336 336 332 331 333 338 336 333 331 330 330 331 327 322 326 326 326 324 323 324 325
326 326 328 326 325 325 326 325 325 325 326 326 327 330 333 335 335 338 340 339 342 344 346 348 342 341 340 339 336 336 333 331 332 335 334 332 331 332 333 331 328 323 324 327 329 330 330 328 327
327 325 327 327 326 325 325 325 325 325 325 326 326 329 332 335 336 339 340 339 341 342 344 346 343 340 341 339 337 336 335 332 332 332 332 332 334 334 334 333 330 327 325 326 329 330 331 330 330
327 327 325 325 325 324 324 324 324 325 325 325 325 328 331 333 338 340 340 339 340 342 343 345 346 344 342 339 338 337 334 332 330 332 333 332 332 332 333 334 332 330 326 327 329 328 330 330 329
326 326 326 324 323 324 324 324 324 324 324 324 325 325 328 335 339 339 339 340 340 341 342 343 343 346 345 343 339 337 335 333 331 330 332 331 331 330 332 332 332 329 328 328 329 328 329 328 327
327 329 327 325 323 324 324 323 324 323 324 325 325 325 328 328 338 339 339 340 340 340 341 341 342 343 344 344 342 338 335 334 330 329 330 330 332 331 334 334 331 328 330 327 327 327 327 327 328
328 326 324 322 322 324 324 324 324 324 324 324 326 325 326 329 334 337 338 339 340 340 339 340 341 341 341 342 343 340 338 336 333 329 328 331 331 331 331 332 327 327 327 326 326 327 328 328 328
325 327 323 323 325 325 325 323 324 325 326 324 324 326 326 328 330 335 337 336 338 339 340 341 341 341 340 339 341 340 338 337 335 332 328 330 330 330 327 328 328 329 326 330 329 329 326 323 322
325 324 324 324 325 327 327 325 325 325 325 324 325 327 327 327 328 330 332 334 335 337 339 340 342 342 341 341 339 340 339 337 336 332 328 328 326 326 327 328 328 329 328 329 328 324 321 318 316
323 323 321 322 323 324 324 324 325 325 325 324 325 325 326 327 327 327 328 331 332 334 337 339 340 342 343 341 339 339 338 337 337 333 330 329 328 328 329 329 328 329 329 325 323 321 318 316 313
322 322 322 322 322 322 323 322 321 321 321 321 322 324 324 326 326 327 328 327 331 332 334 336 339 341 342 342 341 339 338 338 337 334 331 331 331 331 329 330 328 323 323 321 319 317 314 311 307
321 323 322 322 321 321 320 322 322 321 321 321 321 321 321 321 323 325 326 327 327 328 330 332 335 339 340 342 341 339 339 338 337 335 333 332 333 331 330 327 322 325 320 315 314 311 307 306 305
321 322 324 321 320 320 320 323 320 320 321 321 321 321 321 321 321 321 323 326 327 327 326 326 327 333 337 339 341 340 339 339 337 336 334 333 333 330 326 324 321 320 315 312 309 307 306 305 304
322 324 323 322 320 320 321 324 321 321 321 321 321 321 322 321 321 320 321 323 326 327 326 326 324 325 330 335 338 339 338 338 338 336 335 334 331 328 325 322 317 314 311 309 305 305 303 303 302
324 323 322 321 320 319 319 320 319 319 320 321 321 321 321 321 322 322 321 321 322 325 326 326 325 324 325 328 333 337 338 338 338 338 335 333 326 327 321 317 312 310 307 305 304 303 301 300 300
318 319 320 319 318 318 319 318 318 317 318 318 318 319 319 319 321 320 321 321 322 322 324 325 325 325 325 328 332 336 338 338 339 337 334 327 321 323 322 317 310 307 305 304 302 301 301 300 298
318 319 319 318 316 316 316 316 315 315 315 316 315 316 316 317 317 318 319 320 320 322 324 324 324 325 326 330 333 336 337 337 334 328 324 319 315 318 320 315 306 304 302 301 300 301 300 299 297
317 317 317 317 316 315 315 316 317 316 316 315 315 314 314 315 315 316 316 317 320 321 322 324 324 325 327 330 333 335 330 324 319 316 314 311 315 316 315 310 305 301 301 300 299 299 299 299 298
317 314 314 314 316 318 315 320 316 316 316 316 315 315 314 314 314 314 315 316 316 319 322 323 324 325 329 332 333 332 324 318 312 310 308 306 307 308 306 304 301 300 299 299 297 297 297 297 298
315 313 314 314 316 316 316 318 317 315 315 315 315 315 315 315 315 315 315 315 315 316 321 324 324 326 330 331 331 328 321 320 310 307 305 305 305 306 303 300 299 299 298 296 296 296 296 295 296
313 313 313 313 314 319 316 317 316 315 314 314 315 315 314 313 314 313 314 314 315 315 319 324 325 327 330 330 326 323 325 316 306 303 301 302 300 300 299 298 298 297 296 296 295 295 295 294 293
313 315 319 321 319 318 314 315 315 314 314 313 314 314 314 313 313 312 313 314 315 316 317 323 325 327 328 326 325 325 325 313 307 303 301 299 297 297 297 297 296 296 295 295 294 294 294 293 293
313 315 318 319 315 316 315 315 314 314 313 312 312 313 312 312 312 314 314 315 317 317 317 322 325 326 325 325 325 327 318 312 307 303 300 299 298 296 296 296 296 295 294 294 294 293 293 292 292
314 315 313 315 314 316 313 313 313 313 313 312 312 312 312 312 313 313 314 315 314 318 318 322 324 324 323 324 325 321 314 310 306 302 298 297 296 296 295 295 294 293 293 293 293 293 292 291 291
314 313 315 317 317 317 315 315 315 314 313 312 312 311 312 313 313 314 315 316 314 317 319 322 323 322 322 323 320 315 308 300 297 297 296 295 295 294 294 294 293 293 292 292 292 291 291 290 291
314 315 314 314 316 318 318 317 312 311 312 311 311 311 312 312 314 315 316 317 315 317 321 322 323 321 320 317 309 305 301 297 296 294 295 294 293 293 294 293 293 292 292 291 291 290 290 290 290
312 313 313 316 316 316 318 318 313 312 311 311 311 312 311 311 312 316 316 317 317 320 322 322 320 319 316 310 304 299 296 295 295 295 294 294 294 293 293 292 292 291 291 290 290 289 290 290 290
Wind_Speed
10 9 8 7 6 6 12 8 10 6 5 9 3 6 6 12 7 1 8 6 14 20 21 21 21 18 15 15 13 12 10 8 8 9 10 10 11 10 8 8 7 6 6 7 9 11 10 9 8
7 8 8 6 7 11 11 12 8 7 2 3 8 9 9 7 6 8 12 8 16 19 20 19 21 16 15 14 13 11 9 8 7 8 9 12 10 8 6 9 7 7 5 3 4 4 5 5 5
7 7 7 5 12 14 12 6 8 3 4 6 4 4 3 3 5 10 9 13 17 17 18 21 20 16 16 13 11 9 8 8 9 9 11 11 10 9 10 8 7 7 6 6 4 2 3 3 4
6 7 6 10 17 16 16 1 3 7 4 3 3 5 5 5 4 5 13 14 17 16 17 20 20 17 15 13 11 9 7 8 10 12 14 11 10 11 9 8 7 8 9 9 8 7 5 4 3
13 7 11 15 21 20 7 9 6 7 2 5 2 8 1 7 8 9 13 14 17 17 15 17 19 17 14 13 12 9 8 9 10 12 12 10 10 9 7 6 6 7 7 7 6 5 4 4 3
8 8 12 16 21 19 15 10 11 11 9 7 7 9 2 9 9 9 12 13 15 17 15 15 17 15 14 12 11 10 9 9 9 10 10 8 7 7 8 6 4 5 5 5 5 3 3 3 3
14 11 16 20 18 18 15 11 12 13 14 10 5 8 6 9 7 10 11 12 14 15 15 15 16 16 15 12 11 10 10 10 10 11 10 9 8 7 8 9 7 4 4 4 2 2 3 2 1
11 14 21 19 19 21 11 9 10 13 13 2 2 8 5 9 7 10 10 11 13 15 15 15 17 16 16 14 13 12 11 11 12 13 12 9 6 2 2 12 8 5 3 3 1 2 1 1 1
10 14 16 21 22 15 4 7 12 6 10 6 8 12 7 3 7 9 10 10 12 14 15 15 17 17 16 16 15 13 12 11 12 13 14 11 7 5 9 7 8 6 4 2 1 1 2 2 3
11 14 20 16 15 16 12 12 11 9 15 16 11 7 1 2 7 10 11 13 13 15 17 16 17 18 17 16 18 14 13 11 11 11 12 11 9 9 6 6 6 4 3 1 0 2 3 3 1
13 20 14 10 9 9 12 12 13 11 15 15 17 13 8 4 8 12 13 14 16 16 17 17 17 17 17 16 15 16 16 13 12 12 12 12 11 8 9 6 5 4 2 3 0 1 1 1 2
15 16 19 10 6 9 12 14 16 18 17 15 10 8 1 8 9 12 14 15 13 17 17 18 18 18 18 17 17 15 16 14 13 13 13 12 11 11 10 8 7 6 5 3 1 1 0 2 3
13 16 11 13 14 14 14 17 18 18 16 16 18 14 14 15 14 13 12 16 16 16 17 18 19 19 19 18 17 17 16 15 15 14 14 13 12 11 10 8 7 6 4 3 2 1 1 2 4
2 10 14 14 15 15 17 20 19 16 20 22 22 21 20 20 18 19 17 16 17 17 18 18 20 20 20 20 18 18 17 17 17 15 16 15 13 11 10 9 7 6 6 4 2 1 1 2 4
8 13 15 19 19 15 10 19 24 25 23 24 22 21 22 23 26 24 24 19 19 20 19 20 20 21 21 21 20 19 18 17 20 17 18 17 14 14 12 11 10 10 8 5 3 1 2 3 5
8 11 13 3 6 9 10 16 7 8 18 19 22 21 22 23 24 29 29 26 23 20 18 19 17 20 21 21 20 19 19 20 22 19 20 20 17 15 15 13 9 9 7 6 4 2 1 3 5
12 9 14 10 7 7 13 12 8 2 9 13 14 16 17 19 22 29 30 31 28 25 21 19 19 20 22 23 22 21 21 21 22 21 20 19 17 18 17 13 10 9 8 7 5 3 2 2 4
12 15 13 11 5 8 15 21 20 19 19 18 18 17 17 18 18 22 28 31 32 28 26 24 23 21 21 21 22 22 22 22 23 23 20 20 18 20 18 15 12 8 8 7 6 4 3 3 5
9 9 12 10 8 15 20 23 20 19 20 21 21 21 21 22 20 25 25 26 30 33 32 30 26 24 22 22 22 22 23 22 22 21 19 19 18 23 20 17 14 8 8 8 6 5 3 4 8
13 14 15 14 13 12 17 29 24 25 27 23 23 24 25 24 23 23 29 30 31 32 33 31 29 25 23 22 22 20 20 24 21 16 17 19 20 22 22 18 14 11 10 9 7 4 4 4 8
13 14 13 14 16 18 22 26 19 15 16 21 22 23 25 24 24 23 24 30 30 33 31 30 30 26 25 23 21 18 20 21 18 19 19 19 24 24 23 19 16 12 10 10 8 6 5 4 3
11 9 10 11 9 6 5 11 16 16 17 15 15 15 16 18 20 21 22 22 30 31 31 29 28 26 26 26 25 27 21 20 16 26 22 22 21 23 19 18 17 13 10 10 8 6 5 3 2
6 3 5 8 10 14 15 9 13 9 11 13 15 14 14 14 13 15 17 21 27 26 29 27 25 25 25 28 26 26 21 19 24 26 24 22 23 22 20 17 15 13 10 9 8 6 5 4 2
4 3 6 7 6 8 16 16 19 8 9 6 6 4 6 6 9 10 14 19 21 25 21 25 24 26 25 27 26 27 25 26 28 29 26 28 23 22 19 16 14 12 11 10 8 6 5 3 2
8 1 2 4 5 8 2 10 17 16 10 7 8 11 14 8 7 13 14 13 17 19 24 21 24 25 26 26 26 26 26 27 29 32 30 30 25 23 21 18 16 12 11 9 7 5 3 2 0
12 8 4 5 7 11 5 10 8 10 5 5 11 16 15 10 12 6 13 13 16 20 23 24 26 26 26 26 25 25 25 25 25 27 28 25 26 24 23 17 14 13 11 9 7 4 3 1 1
6 8 10 11 16 11 9 20 24 21 21 14 16 15 17 16 9 10 10 12 19 19 23 26 27 27 26 26 25 24 24 25 27 26 26 25 24 24 20 18 15 13 10 8 6 3 2 2 3
12 0 2 4 5 10 10 19 14 13 12 7 13 11 9 6 9 9 9 12 17 19 22 26 27 26 26 26 23 23 23 23 29 29 30 27 24 21 20 16 14 12 9 6 4 2 2 2 4
11 9 7 8 7 6 12 9 10 10 12 13 14 13 1 8 10 12 12 14 12 16 20 23 24 25 26 26 24 24 24 27 31 32 30 27 22 20 17 14 12 10 8 5 3 1 2 4 6
14 14 17 7 9 8 11 21 12 13 13 9 12 5 9 9 12 10 12 9 7 12 18 22 23 25 26 27 26 25 27 30 31 30 27 24 22 16 15 13 11 8 6 4 2 2 4 6 8
Wind_Direction
310 300 294 271 249 228 258 240 249 224 217 225 339 265 315 334 349 260 146 111 137 148 155 155 164 162 153 150 151 149 147 147 154 157 163 148 133 123 100 82 76 70 71 70 67 71 77 80 81
296 293 255 271 250 244 245 214 210 228 300 293 247 249 255 264 54 94 144 137 147 150 155 158 169 165 156 154 153 148 144 142 148 154 149 129 126 121 100 95 81 74 82 102 98 71 64 68 63
279 256 264 231 238 246 254 153 228 145 244 232 225 232 293 59 83 130 110 142 149 153 158 162 168 166 158 158 155 150 143 139 143 153 156 131 120 120 113 102 82 79 86 96 106 106 63 50 39
241 219 248 247 245 239 258 133 179 223 191 205 319 249 152 53 123 86 141 147 153 154 155 165 169 169 168 164 160 154 143 139 144 134 140 139 133 128 127 119 92 91 91 94 93 90 78 65 79
232 252 235 228 243 252 209 253 218 230 250 239 212 244 177 109 109 124 149 151 160 156 151 159 172 173 173 170 165 159 146 144 150 143 147 145 146 145 145 131 99 91 96 93 83 76 66 59 59
217 235 237 234 240 239 242 220 222 238 248 240 246 250 161 112 149 143 150 156 163 159 157 163 174 176 175 175 170 165 157 152 149 162 165 154 162 178 182 174 131 106 99 91 72 55 46 48 43
237 221 237 244 249 244 218 222 240 240 239 233 244 253 134 145 110 149 154 156 163 162 162 164 174 179 180 181 179 176 167 169 165 166 160 168 187 204 215 199 177 137 118 108 77 43 61 62 48
238 254 246 245 250 248 244 239 249 248 247 138 247 232 234 94 139 146 152 157 165 171 175 173 176 177 177 183 189 182 179 176 179 177 181 192 184 116 141 168 172 155 150 134 107 98 92 70 19
241 253 238 235 242 245 285 222 237 238 262 210 211 266 51 94 152 160 165 169 173 180 183 185 182 181 183 185 187 185 187 186 183 188 192 192 186 168 135 155 169 170 172 162 140 50 52 28 44
217 231 240 248 251 250 261 212 245 225 231 238 223 218 180 172 192 191 191 188 189 188 191 191 191 187 187 181 189 185 188 188 190 190 193 186 189 182 171 176 192 192 193 179 52 53 64 35 267
216 247 242 248 304 279 274 239 248 247 252 226 227 215 182 213 205 214 211 206 197 198 195 196 194 193 190 190 188 190 189 196 195 192 186 191 189 192 191 180 181 191 193 211 334 40 63 16 355
233 253 259 283 241 251 248 259 252 246 252 265 252 305 280 252 235 215 224 223 208 199 198 198 196 195 195 194 195 191 197 197 196 194 189 185 189 186 184 189 185 189 196 184 145 160 110 347 351
232 254 245 268 264 261 270 261 262 259 257 257 270 257 254 257 252 245 235 225 217 205 199 200 199 198 198 199 199 200 199 198 199 192 190 184 182 181 180 179 182 178 149 163 171 188 279 337 334
345 264 270 259 260 256 260 264 257 248 252 256 256 256 252 248 249 250 235 229 229 212 204 203 203 202 200 201 204 204 202 196 198 190 190 188 183 177 179 175 162 152 154 159 167 155 324 348 335
269 263 262 251 245 240 260 264 251 250 250 253 249 247 245 248 248 245 247 235 227 224 217 209 207 207 207 205 206 206 204 194 195 194 190 187 180 179 174 177 176 180 169 145 135 85 26 341 330
233 240 257 179 227 239 223 261 283 250 231 248 248 250 252 247 244 243 241 235 233 230 223 219 210 211 210 211 209 211 207 200 194 196 189 187 182 179 184 177 171 167 156 146 130 97 0 348 328
217 253 221 236 205 250 210 277 281 179 274 255 246 252 249 249 243 243 240 239 231 229 228 220 211 212 211 211 210 211 210 206 190 197 189 188 182 182 182 166 163 161 153 140 131 106 74 355 327
237 218 244 261 168 230 264 269 274 273 269 261 259 255 255 251 243 246 245 241 240 236 231 228 213 214 214 212 211 207 209 204 195 193 188 185 182 179 173 168 158 158 148 138 132 123 80 38 341
281 291 282 277 280 279 276 276 274 272 264 260 257 255 252 251 251 243 239 241 241 236 233 227 226 215 208 203 202 202 204 191 190 187 175 181 175 179 176 170 156 155 148 144 137 131 100 30 4
253 261 264 277 281 291 292 284 281 269 260 257 254 252 252 253 248 244 239 234 234 235 231 228 222 214 204 199 201 199 180 167 167 169 170 177 171 174 173 171 159 152 142 135 131 148 122 65 28
241 257 272 283 306 294 281 284 264 257 245 244 247 251 252 252 251 246 239 237 229 231 229 223 224 212 202 197 188 173 155 161 164 168 169 169 171 171 172 168 162 154 146 141 136 122 106 100 56
260 267 279 283 290 278 87 293 284 281 266 250 229 239 242 242 243 248 252 246 236 228 227 219 220 208 198 188 181 178 176 169 172 166 164 159 163 164 165 161 158 153 150 140 132 116 99 86 81
242 24 282 290 288 309 264 247 265 278 255 241 235 244 254 250 246 250 239 241 249 246 221 214 213 207 194 186 181 175 180 179 160 164 159 159 158 159 156 155 154 145 150 143 137 118 104 93 97
67 269 274 269 270 258 246 220 274 275 294 316 306 211 192 253 262 265 261 254 240 240 240 204 203 201 189 181 180 183 181 163 155 154 150 155 154 150 155 148 148 149 145 138 132 124 119 118 101
208 202 271 220 208 248 251 219 236 291 281 275 258 240 281 283 286 289 275 253 239 227 225 202 202 196 182 185 187 187 173 169 164 156 155 152 152 149 153 152 147 149 145 138 130 128 130 134 293
208 203 233 272 257 303 261 248 243 248 258 245 275 273 269 261 262 272 299 267 244 224 213 200 199 193 183 183 183 180 163 167 163 157 156 152 152 158 149 152 148 145 138 135 133 139 150 181 275
171 211 243 280 281 276 246 269 276 270 261 285 266 255 263 265 253 284 304 287 247 226 215 199 195 187 179 176 174 160 164 163 158 153 150 142 146 150 149 148 145 141 138 138 143 152 191 250 268
219 358 170 205 263 267 267 280 265 246 244 309 281 270 253 228 278 307 319 305 252 229 206 199 192 177 172 167 157 158 159 154 147 141 141 142 143 144 144 146 143 139 139 142 142 169 229 273 278
201 232 230 283 238 275 297 258 61 31 348 318 307 278 159 291 302 319 322 306 255 220 196 187 180 167 161 152 150 151 151 148 140 138 141 140 140 142 144 143 141 141 142 146 156 191 256 273 279
233 220 226 233 235 235 273 270 291 292 286 268 285 281 278 294 304 317 317 299 232 199 179 170 162 160 152 143 144 145 145 137 133 131 133 139 139 143 142 140 139 140 144 148 171 248 270 278 283